Location: Unspecified
(0.0000°N, 0.0000°E)
Time: 18:48:43
(UTC+00:00)

deb Briz - Pass Details

Date: 15 February 2026
Orbit: 1607 x 2037 km, 64.9° (Epoch: 11 March)

Event Time Altitude Azimuth Distance (km) Brightness Sun altitude
Rises 18:25:27 0° 318° (NW) 5,100 ? -2.8°
Reaches altitude 10° 18:28:55 10° 310° (NW) 4,168 ? -3.6°
Maximum altitude 18:38:19 36° 248° (WSW) 2,766 ? -5.9°
Drops below altitude 10° 18:48:25 10° 185° (S) 4,444 ? -8.4°
Sets 18:52:20 0° 177° (S) 5,474 ? -9.3°
